Domov               UVHVVR             MKGP            O straneh              
ZDRAVSTVENO VARSTVO RASTLIN
  MREŽA AGROMET. POSTAJ
 ► PROGNOSTIČNA OBVESTILA
AGROMETEOROLOŠKI PODATKI -
ARSO
OBVLADOVANJE TVEGANJ ZARADI
NEUGODNIH VREMENSKIH RAZMER
  ► NARAVNE NESREČE
  ► SUŠA/MOČA
  ► NAMAKANJE
  ► ŽLED (gozdarstvo)
KARTOGRAFSKI PRIKAZI
SPLETNE POVEZAVE
PROJEKTI IN PUBLIKACIJE

AGROMETEOROLOŠKA MREŽA: VREMENSKE POSTAJE IN FENOLOŠKA OPAZOVANJA

Pregled podatkov za lokacijo Drašiči, meteorološka postaja 38741

Pregled senzorjev na lokaciji

ID Ime Zadnja
vrednost
Datum
zadnje
spremembe
Tip
senzorja
1865 Temperatura 2 m (°C) 0,39 °C 20.1.2018 11:30 50YA
1866 Relativna vlaga 2 m (% RH) 90,89 % RH 20.1.2018 11:30 50YA
1867 Omočenost lista (U) 0 U 20.1.2018 11:30 A730WET
1868 Padavine (mm) 1 mm 20.1.2018 11:30 Rain-O-Matic

Pregled podatkov zadnjih 24 ur

Zap.
št.
Datum in čas Drašiči
Omočenost
lista
Padavine Relativna
vlaga
2
m
Temperatura
2
m
0 20.1.2018 11:30 0 1 90,89 0,39
1 20.1.2018 11:00 0 0,2 88,99 1,1
2 20.1.2018 10:30 1 0 94,24 0,61
3 20.1.2018 10:00 10 0 94,9 0,05
4 20.1.2018 09:30 10 0 95,29 -0,1
5 20.1.2018 09:00 6 0 95,31 -0,24
6 20.1.2018 08:30 1 0 95,31 -0,29
7 20.1.2018 08:00 1 0 95,43 -0,81
8 20.1.2018 07:30 1 0 95,29 -0,88
9 20.1.2018 07:00 1 0 95,19 -1,2
10 20.1.2018 06:30 1 0 94,9 -1,78
11 20.1.2018 06:00 1 0 94,99 -1,95
12 20.1.2018 05:30 1 0 95,19 -1,66
13 20.1.2018 05:00 1 0 95,29 -1,83
14 20.1.2018 04:30 3 0 95,09 -1,47
15 20.1.2018 04:00 6 0 94,11 -0,73
16 20.1.2018 03:30 7 0,2 93,85 0,15
17 20.1.2018 03:00 6 0 94,41 -0,05
18 20.1.2018 02:30 7 0 94,09 -0,02
19 20.1.2018 02:00 7 0 93,97 0,15
20 20.1.2018 01:30 6 0,2 93,55 0,27
21 20.1.2018 01:00 5 0 93,75 0,29
22 20.1.2018 00:30 5 0 94,29 0,15
23 20.1.2018 00:00 5 0 94,31 0,12
24 19.1.2018 23:30 4 0 94,95 0,17
25 19.1.2018 23:00 4 0 95,19 0,15
26 19.1.2018 22:30 4 0 95,24 0
27 19.1.2018 22:00 3 0 94,95 -0,15
28 19.1.2018 21:30 3 0 94,8 -0,15
29 19.1.2018 21:00 3 0,2 94,75 -0,2
30 19.1.2018 20:30 3 0 94,58 -0,24
31 19.1.2018 20:00 4 0 94,46 -0,12
32 19.1.2018 19:30 4 0 94,31 -0,2
33 19.1.2018 19:00 4 0 94,09 -0,2
34 19.1.2018 18:30 5 0 93,65 -0,15
35 19.1.2018 18:00 8 0,2 92,48 0,05
36 19.1.2018 17:30 2 1,8 90,21 1,49
37 19.1.2018 17:00 2 2 87,74 2,49
38 19.1.2018 16:30 3 1,8 84,22 3,49
39 19.1.2018 16:00 3 1,8 85,62 3,61
40 19.1.2018 15:30 5 4,2 86,98 3,66
41 19.1.2018 15:00 10 2,4 82,86 6,08
42 19.1.2018 14:30 10 0 79,78 7,84
43 19.1.2018 14:00 0 0 78,9 7,99
44 19.1.2018 13:30 0 0 78,02 7,96
45 19.1.2018 13:00 1 0 74,85 8,4
46 19.1.2018 12:30 0 0 70,99 9,38
© 2011 Ministrstvo za kmetijstvo, gozdarstvo in prehrano. Vse pravice pridržane.